Change the Weather History Date:

Monday, January 23, 2012

  Actual Average Record
Temperature  
Mean Temperature 62 °F -  
Max Temperature 71 °F 60 °F 81 °F (1929)
Min Temperature 53 °F 38 °F 18 °F (1935)
Degree Days  
Heating Degree Days 2    
Growing Degree Days 12 (Base 50)    
Moisture  
Dew Point 62 °F    
Average Humidity 90    
Maximum Humidity 100    
Minimum Humidity 78    
Precipitation  
Precipitation 0.79 in - - ()
Sea Level Pressure  
Sea Level Pressure 30.00 in    
Wind  
Wind Speed 9 mph (South)    
Max Wind Speed 17 mph    
Max Gust Speed 31 mph    
Visibility 7 miles    
Events Fog , Rain , Thunderstorm    
Averages and records for this station are not official NWS values.
T = Trace of Precipitation, MM = Missing Value Source: NWS Daily Summary

Daily Weather History Graph

Daily Weather History Graph

Search for Another Location

Airport or City:

Trip Planner

Search our weather history database for the weather conditions in past years. The results will help you decide how hot, cold, wet, or windy it might be!

Date:

Astronomy

Jan. 23, 2012 Rise Set
Actual Time 6:44 AM CST 5:11 PM CST
Civil Twilight 6:18 AM CST 5:38 PM CST
Nautical Twilight 5:49 AM CST 6:07 PM CST
Astronomical Twilight 5:19 AM CST 6:36 PM CST
Moon 6:43 AM CST (1/23) 5:53 PM CST (1/23)
Length of Visible Light 11h 19m
Length of Day
10h 27m
New Moon, 0% of the Moon is Illuminated
Jan 23
New Moon
Jan 30
First Quarter
Feb 7
Full
Feb 14
Last Quarter
Feb 21
New

Hourly Weather History & Observations

Time (CST) Temp. Dew Point Humidity Pressure Visibility Wind Dir Wind Speed Gust Speed Precip Events Conditions
12:56 AM 68.0 °F 64.9 °F 90% 29.99 in 10.0 mi South 10.4 mph 19.6 mph N/A   Overcast
1:03 AM 68.0 °F 64.9 °F 90% 29.99 in 10.0 mi South 9.2 mph 17.3 mph N/A   Overcast
1:56 AM 68.0 °F 64.9 °F 90% 29.97 in 10.0 mi South 8.1 mph - 0.00 in Rain Light Rain
2:08 AM 68.0 °F 64.9 °F 90% 29.98 in 10.0 mi South 12.7 mph - 0.00 in   Overcast
2:22 AM 68.0 °F 64.9 °F 90% 29.97 in 10.0 mi South 13.8 mph 19.6 mph 0.00 in   Mostly Cloudy
2:25 AM 68.0 °F 64.9 °F 90% 29.97 in 10.0 mi South 11.5 mph 19.6 mph 0.00 in   Mostly Cloudy
2:35 AM 68.0 °F 64.9 °F 90% 29.97 in 10.0 mi South 10.4 mph - 0.00 in   Overcast
2:56 AM 68.0 °F 64.9 °F 90% 29.94 in 10.0 mi South 11.5 mph - 0.00 in   Overcast
3:12 AM 68.0 °F 64.9 °F 90% 29.95 in 10.0 mi South 10.4 mph 21.9 mph N/A   Overcast
3:27 AM 69.1 °F 66.0 °F 90% 29.95 in 10.0 mi South 10.4 mph - N/A   Overcast
3:56 AM 69.1 °F 66.0 °F 90% 29.93 in 10.0 mi South 16.1 mph 20.7 mph N/A   Overcast
4:56 AM 69.1 °F 64.9 °F 87% 29.95 in 10.0 mi South 12.7 mph 19.6 mph N/A   Overcast
5:16 AM 69.1 °F 64.9 °F 87% 29.96 in 10.0 mi South 12.7 mph 20.7 mph N/A   Scattered Clouds
5:32 AM 69.1 °F 64.9 °F 87% 29.95 in 10.0 mi South 13.8 mph 20.7 mph N/A   Mostly Cloudy
5:48 AM 69.1 °F 64.9 °F 87% 29.95 in 10.0 mi South 15.0 mph - N/A   Overcast
5:56 AM 69.1 °F 64.9 °F 87% 29.94 in 10.0 mi South 13.8 mph 21.9 mph 0.00 in Rain Light Rain
6:56 AM 68.0 °F 66.0 °F 93% 29.96 in 10.0 mi South 10.4 mph - 0.01 in   Overcast
7:52 AM 68.0 °F 66.0 °F 93% 29.98 in 10.0 mi South 10.4 mph - 0.01 in   Mostly Cloudy
7:56 AM 68.0 °F 66.0 °F 93% 29.97 in 10.0 mi South 10.4 mph 17.3 mph 0.01 in   Mostly Cloudy
8:03 AM 69.1 °F 66.0 °F 90% 29.99 in 10.0 mi South 9.2 mph - N/A   Mostly Cloudy
8:08 AM 69.1 °F 66.0 °F 90% 29.99 in 10.0 mi SSW 9.2 mph 20.7 mph N/A   Scattered Clouds
8:56 AM 69.1 °F 66.0 °F 90% 29.98 in 10.0 mi South 12.7 mph - 0.00 in Rain Light Rain
9:06 AM 70.0 °F 66.0 °F 87% 29.99 in 10.0 mi SSW 13.8 mph 20.7 mph 0.00 in Thunderstorm Thunderstorm
9:13 AM 70.0 °F 64.9 °F 84% 29.99 in 10.0 mi SSW 15.0 mph 24.2 mph 0.00 in Thunderstorm Thunderstorm
9:26 AM 71.1 °F 64.9 °F 81% 30.00 in 10.0 mi SSW 12.7 mph 31.1 mph 0.00 in Thunderstorm Thunderstorm
9:38 AM 71.1 °F 64.9 °F 81% 30.00 in 10.0 mi SSW 10.4 mph 23.0 mph 0.00 in   Mostly Cloudy
9:47 AM 71.1 °F 64.9 °F 81% 30.00 in 10.0 mi SSW 12.7 mph 24.2 mph 0.00 in Thunderstorm Thunderstorm
9:56 AM 71.1 °F 64.0 °F 78% 29.99 in 10.0 mi SSW 17.3 mph 24.2 mph 0.00 in Thunderstorm Thunderstorm
10:05 AM 71.1 °F 64.0 °F 78% 30.02 in 10.0 mi SW 17.3 mph 26.5 mph 0.00 in Rain , Thunderstorm Light Thunderstorms and Rain
10:20 AM 69.1 °F 64.9 °F 87% 30.00 in 2.5 mi South 9.2 mph 21.9 mph 0.20 in Rain , Thunderstorm Heavy Thunderstorms and Rain
10:26 AM 68.0 °F 64.9 °F 90% 29.99 in 0.8 mi South 13.8 mph 21.9 mph 0.52 in Rain , Thunderstorm Heavy Thunderstorms and Rain
10:36 AM 66.0 °F 64.0 °F 93% 30.01 in 1.0 mi SW 13.8 mph 25.3 mph 0.69 in Rain Light Rain
10:39 AM 64.9 °F 63.0 °F 93% 30.01 in 3.0 mi WSW 16.1 mph 24.2 mph 0.69 in Rain Light Rain
10:46 AM 64.0 °F 62.1 °F 93% 30.02 in 4.0 mi WNW 9.2 mph 23.0 mph 0.73 in Rain Light Rain
10:56 AM 63.0 °F 59.0 °F 87% 30.01 in 2.5 mi West 11.5 mph 20.7 mph 0.77 in Rain Rain
11:03 AM 62.1 °F 59.0 °F 90% 30.03 in 3.0 mi WSW 9.2 mph - 0.05 in Rain Rain
11:18 AM 59.0 °F 55.9 °F 90% 30.02 in 6.0 mi West 9.2 mph - 0.08 in Rain Rain
12:56 PM 62.1 °F 57.9 °F 86% 29.96 in 10.0 mi Calm Calm - 0.00 in   Mostly Cloudy
1:56 PM 64.0 °F 60.1 °F 87% 29.96 in 10.0 mi Calm Calm - 0.00 in   Partly Cloudy
2:56 PM 66.9 °F 62.1 °F 84% 29.95 in 10.0 mi SSE 3.5 mph - N/A   Clear
3:56 PM 66.0 °F 62.1 °F 87% 29.96 in 10.0 mi SSE 5.8 mph - N/A   Clear
4:56 PM 64.0 °F 61.0 °F 90% 29.98 in 10.0 mi SSE 3.5 mph - N/A   Clear
5:56 PM 63.0 °F 60.1 °F 90% 30.01 in 10.0 mi Calm Calm - N/A   Clear
6:56 PM 60.1 °F 59.0 °F 96% 30.03 in 7.0 mi Calm Calm - N/A   Clear
7:29 PM 59.0 °F 57.0 °F 93% 30.04 in 2.0 mi Calm Calm - N/A   Clear
7:37 PM 57.9 °F 57.0 °F 97% 30.04 in 1.0 mi Calm Calm - N/A   Mist
7:48 PM 57.9 °F 57.0 °F 97% 30.04 in 1.5 mi Calm Calm - N/A   Clear
7:52 PM 57.0 °F 57.0 °F 100% 30.05 in 0.8 mi SSE 3.5 mph - N/A   Mist
7:56 PM 57.0 °F 55.9 °F 96% 30.04 in 0.5 mi Calm Calm - N/A Fog Fog
8:56 PM 55.9 °F 55.9 °F 100% 30.05 in 0.5 mi Calm Calm - N/A Fog Fog
9:56 PM 55.0 °F 55.0 °F 100% 30.07 in 0.2 mi Calm Calm - N/A Fog Fog
10:34 PM 55.0 °F 54.0 °F 96% 30.08 in 2.5 mi Calm Calm - 0.00 in   Scattered Clouds
10:41 PM 55.0 °F 54.0 °F 96% 30.08 in 8.0 mi Calm Calm - 0.00 in   Scattered Clouds
10:56 PM 54.0 °F 54.0 °F 100% 30.08 in 3.0 mi Calm Calm - 0.00 in   Clear
10:59 PM 54.0 °F 54.0 °F 100% 30.08 in 1.8 mi Calm Calm - N/A   Clear
11:31 PM 54.0 °F 53.1 °F 97% 30.08 in 0.8 mi Calm Calm - N/A   Clear
11:56 PM 53.1 °F 52.0 °F 96% 30.08 in 0.5 mi Calm Calm - N/A Fog Fog